Retour au catalogue

STARLINK-4027

ActifCommunicationsVLEO
NORAD 52601·PAYLOAD·🇺🇸 United States

Lancé May 14, 2022 depuis Cape Canaveral Space Force Station

Loading…

Prochains Passages (prochaines 24 heures)

TLE

FraisSource: CelesTrak SupGP

Époque: Sep 14, 2026, 21:43 UTC

1 52601C 22052D   26257.90534722 -.00025235  00000+0 -72214-3 0  2573
2 52601  53.1599 141.7415 0001260  83.5181  30.8046 15.35404773    17

Suivez STARLINK-4027 en temps réel avec AllMySat

Download on the App Store